FW8684 Weather Reports


time (UTC)temp
C
wind
direction
speed
KPH
gust
KPH
rain 1hr
cm
rain 24hr
cm
rain mn
cm
humidity
%
barometer
mb
20260507180856 14 203 9.7 27.4 0.00 2.31 2.31 81 994.3
20260507175835 15 248 14.5 29.0 0.00 2.31 2.31 79 995.5
20260507175325 15 270 16.1 29.0 0.00 2.31 2.31 81 995.7
20260507174815 15 225 12.9 25.7 0.00 2.31 2.31 82 995.4
20260507174305 15 135 12.9 25.7 0.00 2.31 2.31 81 995.2
20260507173755 15 248 12.9 25.7 0.00 2.31 2.31 80 994.2
20260507173245 15 248 12.9 25.7 0.00 2.31 2.31 81 994.6
20260507172224 15 248 12.9 29.0 0.00 2.31 2.31 81 994.9
20260507171204 16 248 17.7 32.2 0.00 2.31 2.31 83 994.3
20260507170654 16 248 17.7 29.0 0.00 2.31 2.31 84 994.8
20260507170144 16 270 16.1 29.0 0.00 2.31 2.31 86 994.9
20260507165634 16 203 12.9 29.0 0.00 2.31 2.31 86 995.0
20260507165124 17 248 12.9 27.4 0.00 2.31 2.31 83 994.7
20260507164614 17 248 11.3 37.0 0.00 2.31 2.31 84 994.6
20260507164104 17 225 9.7 37.0 0.00 2.31 2.31 83 995.4
20260507163553 17 225 20.9 37.0 0.00 2.31 2.31 82 996.0
20260507163043 17 248 17.7 32.2 0.00 2.31 2.31 83 996.0
20260507162533 17 248 11.3 33.8 0.00 2.31 2.31 83 995.4
20260507162023 18 225 17.7 33.8 0.00 2.31 2.31 82 995.1
20260507161514 18 248 14.5 27.4 0.00 2.31 2.31 85 994.6
20260507161003 18 225 9.7 22.5 0.00 2.31 2.31 89 994.6
20260507160453 17 248 9.7 24.1 0.00 2.31 2.31 90 994.6
20260507155943 17 225 9.7 27.4 0.00 2.31 2.31 93 994.4
20260507155433 17 180 8.0 27.4 0.00 2.31 2.31 96 993.8
20260507154923 16 203 12.9 22.5 0.00 2.31 2.31 97 993.9
20260507154412 16 180 11.3 17.7 0.00 2.31 2.31 97 994.3
20260507153902 16 270 8.0 17.7 0.00 2.31 2.31 97 994.9
20260507152842 16 180 3.2 14.5 0.00 2.31 2.31 98 993.7
20260507152332 16 180 6.4 14.5 0.00 2.31 2.31 98 992.9
20260507151312 16 203 6.4 14.5 0.03 2.31 2.31 99 992.9
20260507150251 16 180 12.9 17.7 0.03 2.31 2.31 99 992.6
20260507145741 16 158 6.4 22.5 0.03 2.31 2.31 99 993.0
20260507145231 15 135 6.4 22.5 0.03 2.31 2.31 99 992.9
20260507144721 16 180 4.8 12.9 0.03 2.31 2.31 99 993.0
20260507144211 15 203 6.4 14.5 0.03 2.31 2.31 99 993.1
20260507143150 15 180 9.7 22.5 0.03 2.31 2.31 99 993.4
20260507141110 15 248 9.7 20.9 0.00 2.29 2.29 99 994.5
20260507140610 16 203 8.0 25.7 0.00 2.29 2.29 99 994.5
20260507140050 15 180 9.7 25.7 0.03 2.29 2.29 99 994.0
20260507135540 16 180 12.9 24.1 0.05 2.29 2.29 99 993.6
20260507134520 16 158 14.5 27.4 0.28 2.29 2.29 99 993.3
20260507134010 16 203 14.5 29.0 0.28 2.29 2.29 99 993.6
20260507133500 16 203 16.1 29.0 0.28 2.29 2.29 99 993.2
20260507132950 16 203 17.7 27.4 0.28 2.29 2.29 99 993.8
20260507132439 16 225 16.1 35.4 0.28 2.29 2.29 99 993.5
20260507131929 16 225 12.9 35.4 0.28 2.29 2.29 99 993.0
20260507131419 16 225 12.9 37.0 0.28 2.29 2.29 99 991.8
20260507130911 16 225 12.9 37.0 0.28 2.29 2.29 99 990.4
20260507130359 16 158 17.7 37.0 0.28 2.29 2.29 99 990.4
20260507125849 16 180 17.7 29.0 0.23 2.26 2.26 99 991.8
20260507125339 16 180 14.5 25.7 0.20 2.21 2.21 99 992.9
20260507124828 17 225 16.1 27.4 0.13 2.11 2.11 99 994.2
20260507123809 17 203 12.9 25.7 0.18 2.01 2.01 99 994.0
20260507123258 17 203 11.3 24.1 0.18 2.01 2.01 99 994.4
20260507122748 17 180 11.3 20.9 0.20 2.01 2.01 99 994.2
20260507122238 17 225 12.9 22.5 0.23 2.01 2.01 99 993.8
20260507121728 17 225 11.3 22.5 0.28 2.01 2.01 99 993.6
20260507121217 17 225 11.3 17.7 0.28 2.01 2.01 99 993.5
20260507120708 17 180 6.4 14.5 0.30 2.01 2.01 99 993.3
20260507120158 17 158 3.2 17.7 0.30 2.01 2.01 99 992.9
20260507115648 17 225 6.4 17.7 0.33 2.01 2.01 99 993.0
20260507115137 17 225 3.2 11.3 0.30 1.98 2.01 99 993.6
20260507114627 17 225 3.2 6.4 0.30 1.98 1.98 99 993.4
20260507114117 17 203 1.6 6.4 0.23 1.93 1.93 99 993.5
20260507113607 17 248 0.0 6.4 0.18 1.83 1.83 99 993.9
20260507113056 17 270 0.0 6.4 0.43 1.80 1.80 99 993.2
20260507112546 17 248 0.0 3.2 0.51 1.78 1.78 99 992.7
20260507112036 17 225 0.0 6.4 0.48 1.75 1.75 99 992.3
20260507111526 17 270 3.2 6.4 0.51 1.75 1.75 99 992.4
20260507105956 17 158 0.0 0.0 0.48 1.70 1.70 99 991.1
20260507105446 17 203 0.0 0.0 0.48 1.68 1.68 99 993.0
20260507103916 17 90 6.4 14.5 0.48 1.68 1.68 99 990.0
20260507103405 17 90 4.8 9.7 0.38 1.55 1.60 99 990.6
20260507102855 17 23 1.6 6.4 0.10 1.27 1.27 99 992.1
20260507101836 17 113 1.6 6.4 0.30 1.22 1.22 98 991.1
20260507101325 17 113 1.6 6.4 0.30 1.22 1.22 98 990.3
20260507100815 17 45 1.6 9.7 0.30 1.22 1.22 98 990.4
20260507100304 17 68 3.2 9.7 0.30 1.22 1.22 98 990.3
20260507095755 17 90 3.2 6.4 0.33 1.22 1.22 98 990.1
20260507094735 17 68 3.2 9.7 0.30 1.19 1.19 98 989.8
20260507094224 17 23 3.2 11.3 0.30 1.19 1.19 98 989.4
20260507093714 17 180 3.2 11.3 0.30 1.19 1.19 98 988.8
20260507092654 17 135 1.6 9.7 0.30 1.17 1.17 98 990.2
20260507092144 17 248 0.0 6.4 0.10 0.94 0.94 98 991.0
20260507091634 17 225 1.6 6.4 0.18 0.94 0.94 98 990.2
20260507090103 17 90 3.2 9.7 0.43 0.94 0.94 98 990.5
20260507085553 17 113 1.6 11.3 0.46 0.89 0.89 98 990.6
20260507085043 17 180 4.8 11.3 0.64 0.89 0.89 98 990.9
20260507084533 17 180 3.2 12.9 0.66 0.89 0.89 98 990.6
20260507084023 17 158 4.8 14.5 0.69 0.89 0.89 98 990.4
20260507083513 17 180 11.3 17.7 0.86 0.89 0.89 97 990.6
20260507083003 17 135 6.4 17.7 0.86 0.89 0.89 97 990.8
20260507082452 17 180 9.7 24.1 0.86 0.86 0.86 97 991.3
20260507081942 17 113 3.2 24.1 0.84 0.84 0.84 97 991.6
20260507081434 17 180 9.7 33.8 0.71 0.71 0.71 97 991.4
20260507080412 17 180 20.9 37.0 0.64 0.64 0.64 96 991.6
20260507075902 21 203 6.4 20.9 0.46 0.46 0.46 95 991.4
20260507075351 22 180 6.4 9.7 0.36 0.36 0.38 96 990.5
20260507074844 22 113 0.0 6.4 0.23 0.23 0.28 95 990.7
20260507074332 22 225 0.0 6.4 0.23 0.23 0.23 95 990.9
20260507073311 22 270 0.0 3.2 0.03 0.03 0.03 92 991.0
20260507072801 23 270 0.0 6.4 0.00 0.00 0.00 92 990.9
20260507072251 23 270 0.0 6.4 0.00 0.00 0.00 91 991.4
20260507070720 23 225 3.2 12.9 0.00 0.00 0.00 88 991.8
20260507065701 24 293 0.0 9.7 0.00 0.00 0.00 86 991.6
20260507065122 24 270 0.0 9.7 0.00 0.00 0.00 85 991.8
20260507064103 24 315 0.0 0.0 0.00 0.00 0.00 86 991.6
20260507063551 24 248 0.0 0.0 0.00 0.00 0.00 85 991.5
20260507062534 24 248 0.0 6.4 0.00 0.00 0.00 85 991.7
20260507062024 24 270 0.0 17.7 0.00 0.00 0.00 84 991.9
20260507061002 25 315 0.0 20.9 0.00 0.00 0.00 83 992.0
20260507060453 25 315 3.2 17.7 0.00 0.00 0.00 83 992.3
20260507055432 25 45 6.4 17.7 0.00 0.00 0.00 83 992.1
20260507054923 25 338 1.6 20.9 0.00 0.00 0.00 83 991.9
20260507054412 25 23 4.8 20.9 0.00 0.00 0.00 83 991.9
20260507053902 25 45 0.0 24.1 0.00 0.00 0.00 83 992.3
20260507053352 25 338 8.0 24.1 0.00 0.00 0.00 82 992.2
20260507052332 25 248 3.2 20.9 0.00 0.00 0.00 82 992.7
20260507051822 25 338 6.4 17.7 0.00 0.00 0.00 82 992.7
20260507051312 25 45 1.6 24.1 0.00 0.00 0.00 82 992.8
20260507050801 25 45 1.6 24.1 0.00 0.00 0.00 82 992.7
20260507050251 25 23 1.6 22.5 0.00 0.00 0.00 82 992.6
20260507045741 25 0 3.2 24.1 0.00 0.00 0.00 82 992.4
20260507045231 25 338 4.8 24.1 0.00 0.00 0.00 82 992.1
20260507044211 25 45 6.4 22.5 0.00 0.00 0.00 82 992.2
20260507043151 24 315 1.6 22.5 0.00 0.00 0.00 83 992.3
20260507042640 24 23 0.0 22.5 0.00 0.00 0.00 83 992.1
20260507042130 25 23 6.4 20.9 0.00 0.00 0.00 82 992.1
20260507041620 25 0 6.4 20.9 0.00 0.00 0.00 82 992.4
20260507041110 24 0 4.8 20.9 0.00 0.00 0.00 82 992.7
20260507040600 25 338 6.4 20.9 0.00 0.00 0.00 82 992.6
20260507040059 24 23 6.4 20.9 0.00 0.00 0.00 82 993.0
20260507035540 24 0 3.2 20.9 0.00 0.00 0.00 82 993.1
20260507035030 25 23 8.0 25.7 0.00 0.00 0.00 82 993.3
20260507034519 25 23 11.3 25.7 0.00 0.00 0.00 82 993.7
20260507034009 25 23 6.4 20.9 0.00 0.00 0.00 82 993.8
20260507033459 25 293 3.2 17.7 0.00 0.00 0.00 82 993.8
20260507032949 25 0 1.6 22.5 0.00 0.00 0.00 82 994.1
20260507031929 25 23 6.4 17.7 0.00 0.00 0.00 82 993.8
20260507031419 24 0 3.2 20.9 0.00 0.00 0.00 83 993.7
20260507030909 24 45 1.6 22.5 0.00 0.00 0.00 83 993.8
20260507030359 24 45 6.4 22.5 0.00 0.00 0.00 83 993.9
20260507025849 24 338 6.4 22.5 0.00 0.00 0.03 84 993.9
20260507024828 24 0 6.4 12.9 0.00 0.00 0.03 84 994.1
20260507024318 24 45 3.2 11.3 0.00 0.00 0.03 84 994.5
20260507022748 24 23 1.6 11.3 0.00 0.00 0.03 84 994.8
20260507022238 24 45 1.6 11.3 0.00 0.00 0.03 84 994.8
20260507021728 24 68 3.2 9.7 0.00 0.00 0.03 84 994.9
20260507021217 24 338 0.0 9.7 0.00 0.00 0.03 84 995.0
20260507020707 24 0 1.6 6.4 0.00 0.00 0.03 84 994.8
20260507015647 24 0 1.6 11.3 0.00 0.00 0.03 85 994.9
20260507014627 24 23 1.6 12.9 0.00 0.00 0.03 86 994.9
20260507013057 24 23 3.2 6.4 0.00 0.00 0.03 86 995.1
20260507012547 24 23 3.2 6.4 0.00 0.00 0.03 86 995.3
20260507012037 24 0 3.2 6.4 0.00 0.00 0.03 86 995.3
20260507011526 24 23 1.6 9.7 0.00 0.00 0.03 86 995.3
20260507011016 24 23 3.2 9.7 0.00 0.00 0.03 86 995.3
20260507010506 24 0 3.2 9.7 0.00 0.00 0.03 87 995.0
20260507005956 23 68 0.0 6.4 0.00 0.00 0.03 88 995.0
20260507005447 23 23 0.0 6.4 0.00 0.00 0.03 88 995.1
20260507004936 23 23 0.0 6.4 0.00 0.00 0.03 88 994.9
20260507004426 23 23 0.0 9.7 0.00 0.00 0.03 88 994.8
20260507003405 24 23 3.2 12.9 0.00 0.00 0.03 87 994.9
20260507002855 24 23 3.2 14.5 0.00 0.00 0.03 87 994.8
20260507001835 24 23 0.0 11.3 0.00 0.00 0.03 87 995.1
20260507001326 24 23 1.6 11.3 0.00 0.00 0.03 87 995.3
20260507000306 25 45 0.0 6.4 0.00 0.00 0.03 86 995.5
20260506235244 25 45 0.0 12.9 0.00 0.00 0.03 85 995.5
20260506234735 25 23 1.6 6.4 0.00 0.00 0.03 85 995.9
20260506234224 25 23 1.6 6.4 0.00 0.00 0.03 85 995.9
20260506233714 25 23 0.0 9.7 0.00 0.00 0.03 86 995.9
20260506232654 25 23 3.2 11.3 0.00 0.00 0.03 87 996.0
20260506232144 24 23 0.0 6.4 0.00 0.00 0.03 87 995.9
20260506231634 24 23 0.0 6.4 0.00 0.00 0.03 87 995.9
20260506231123 24 45 0.0 12.9 0.00 0.00 0.03 87 995.8
20260506230103 25 23 1.6 6.4 0.00 0.00 0.03 86 995.9
20260506225553 25 23 0.0 6.4 0.00 0.00 0.03 86 995.7
20260506224533 25 23 0.0 6.4 0.00 0.00 0.03 85 996.1
20260506224023 25 23 0.0 6.4 0.00 0.00 0.03 84 996.2
20260506223512 25 45 0.0 6.4 0.00 0.00 0.03 83 996.2
20260506223002 25 45 0.0 6.4 0.00 0.00 0.03 82 996.2
20260506222452 25 23 0.0 3.2 0.00 0.00 0.03 81 996.4
20260506221942 26 23 0.0 6.4 0.00 0.00 0.03 80 996.0
20260506220922 26 23 0.0 11.3 0.00 0.00 0.03 78 996.3
20260506220412 26 23 1.6 6.4 0.00 0.00 0.03 78 996.2
20260506215903 26 0 1.6 6.4 0.00 0.00 0.03 77 996.5
20260506215351 26 23 0.0 6.4 0.00 0.00 0.03 77 996.3
20260506214841 26 23 0.0 6.4 0.00 0.00 0.03 76 996.2
20260506214331 26 0 0.0 9.7 0.00 0.00 0.03 75 996.2
20260506213821 27 0 0.0 9.7 0.00 0.00 0.03 75 996.4
20260506213311 27 23 1.6 9.7 0.00 0.00 0.03 74 996.3
20260506212801 27 23 0.0 14.5 0.00 0.00 0.03 74 996.2
20260506212251 27 23 0.0 14.5 0.00 0.00 0.03 73 996.4
20260506211741 27 23 1.6 12.9 0.00 0.00 0.03 73 996.1
20260506211232 27 338 3.2 17.7 0.00 0.00 0.03 72 996.3
20260506210721 27 23 8.0 17.7 0.00 0.00 0.03 72 996.4
20260506210210 27 23 6.4 14.5 0.00 0.00 0.03 72 996.4
20260506205700 27 0 3.2 14.5 0.00 0.00 0.03 73 996.2
20260506205150 27 0 3.2 14.5 0.00 0.00 0.03 72 996.2
20260506204640 27 23 3.2 14.5 0.00 0.00 0.03 72 996.4
20260506204130 28 45 1.6 14.5 0.00 0.00 0.03 71 996.5
20260506203620 28 338 3.2 24.1 0.00 0.00 0.03 71 996.5
20260506203110 28 0 3.2 24.1 0.00 0.00 0.03 71 996.4
20260506202600 28 0 3.2 17.7 0.00 0.00 0.03 71 996.7
20260506202049 28 23 1.6 12.9 0.00 0.00 0.03 71 996.7
20260506201539 28 0 3.2 20.9 0.00 0.00 0.03 70 996.6
20260506201029 28 23 0.0 20.9 0.00 0.00 0.03 69 996.8
20260506200519 28 0 0.0 17.7 0.00 0.00 0.03 69 996.9
20260506200009 29 23 4.8 17.7 0.00 0.00 0.03 68 996.8
20260506194948 29 135 3.2 20.9 0.00 0.00 0.03 67 996.6
20260506194439 29 23 12.9 27.4 0.00 0.00 0.03 67 996.4
20260506193419 29 23 3.2 20.9 0.00 0.00 0.03 67 996.1
20260506192909 29 0 3.2 22.5 0.00 0.00 0.03 67 996.1
20260506192359 29 338 1.6 27.4 0.00 0.00 0.03 68 996.1
20260506191848 29 23 4.8 29.0 0.00 0.00 0.03 67 996.3
20260506191338 30 0 12.9 29.0 0.00 0.00 0.03 65 996.3
20260506190828 30 338 4.8 29.0 0.00 0.00 0.03 65 996.5
20260506190318 30 0 8.0 29.0 0.00 0.00 0.03 64 996.4
20260506185808 30 0 6.4 27.4 0.00 0.00 0.03 64 996.6
20260506185258 30 113 4.8 33.8 0.00 0.00 0.03 63 996.6
20260506184748 30 23 11.3 33.8 0.00 0.00 0.03 63 996.8
20260506184238 30 0 6.4 17.7 0.00 0.00 0.03 65 996.6
20260506183727 30 338 3.2 24.1 0.00 0.00 0.03 65 996.9
20260506183217 30 68 1.6 29.0 0.00 0.00 0.03 66 997.1
20260506182707 30 23 6.4 29.0 0.00 0.00 0.03 65 996.8
20260506182157 30 23 9.7 24.1 0.00 0.00 0.03 64 996.9
20260506181647 30 0 1.6 24.1 0.00 0.00 0.03 64 996.7
20260506181137 30 315 3.2 25.7 0.00 0.00 0.03 63 996.9